Tracking 25195 objects as of 20-Jan-2022
HD Live streaming from Space Station
objects crossing your sky now

STARLINK-1602

Track STARLINK-1602 now!
10-day predictions
STARLINK-1602 is classified as:


NORAD ID: 46121
Int'l Code: 2020-057E
Perigee: 552.8 km
Apogee: 556.0 km
Inclination: 53.1 °
Period: 95.6 minutes
Semi major axis: 6925 km
RCS: Unknown
Launch date: August 18, 2020
Source: United States (US)
Launch site: AIR FORCE EASTERN TEST RANGE (AFETR)
aabbcc
Your satellite tracking list
Your tracking list is empty




NASA's NSSDC Master Catalog

Two Line Element Set (TLE):
1 46121U 20057E   22019.71292662  .00001811  00000-0  14053-3 0  9994
2 46121  53.0540 235.1738 0002340  70.6782 289.4460 15.06388813 79418
Source of the keplerian elements: AFSPC